Location: Unspecified
(40.8819°N, 0.0000°E)
Time: 17:11:51
(UTC+00:00)

SEEDS - Pass Details

Date: 24 April 2024
Orbit: 551 x 561 km, 97.7° (Epoch: 26 May)

Event Time Altitude Azimuth Distance (km) Brightness Sun altitude
Rises 04:12:12 0° 8° (N) 2,740 ? -10.4°
Reaches altitude 10° 04:14:22 10° 4° (N) 1,839 ? -10.1°
Maximum altitude 04:18:16 58° 285° (WNW) 650 ? -9.4°
Drops below altitude 10° 04:22:08 10° 207° (SSW) 1,822 ? -8.8°
Enters shadow 04:23:14 - 205° (SSW) 2,280 ? -8.6°
